Location: Home
(42.5358°N, 72.7383°W)
Time: 16:13:15
(UTC-04:00)

Kosmos-337 - Pass Details

Date: 06 July 2022
Orbit: 1467 x 1552 km, 74.0° (Epoch: 18 August)

Event Time Altitude Azimuth Distance (km) Brightness Sun altitude
Rises 00:44:51 0° 341° (NNW) 4,733 ? -24.7°
Reaches altitude 10° 00:48:00 10° 347° (NNW) 3,745 ? -24.8°
Maximum altitude 00:56:51 49° 61° (ENE) 1,910 ? -24.8°
Enters shadow 01:03:23 19° 129° (SE) 3,053 ? -24.8°
